Etusivu
METAR-TAF:

METAR-TAF

Lentoasemat :

Midland, Texas, Yhdysvallat

Leveyspiiri: 32-02-11N, Pituuspiiri: 102-06-03W, korkeus merenpinnasta: 854 m

Tämänhetkinen sää

Tämä raportti tehtiin 28 minuuttia sitten, kello 20.55 UTC
Tuuli 9 kn etelästä
Lämpötila 20°C
Kosteus 32%
Ilmanpaine 1016 hPa
Näkyvyys: 16.1 km
selkeää

METAR: KMDD 162055Z AUTO 17009KT 10SM CLR 20/03 A3000 RMK AO2 T01980034

Aika: 15:23 (21:23 UTC)


TAF: puuttuu

Säähavainnot ja -ennusteet yli 4000 lentoasemalta (METAR- ja TAF-raportit).

Käytössä olevat sääasemat on merkitty karttaan keltaisilla ja punaisilla pisteillä.

Aseta hiiri pisteen päälle nähdäksesi sääaseman nimen.

Klikkaa sitten nähdäksesi säähavainnot ja -ennusteet.

Kartan vaihtaminen: klikkaa mustalla rastilla varustettuja vihreitä pisteitä, niin voit zoomata sisään; viivalla varustettua vihreää pistettä, niin voit zoomata ulos tai vihreitä nuolia, niin pääset viereisille kartoille.


METAR-TAF: